Lancaster, PA

9:20 PM EST on January 18, 2017 (GMT -0500)
Lancaster

Weather History for KLNS - October, 2013

Change the Weather History Date:

Tuesday, October 1, 2013

  Actual Average Record
Temperature  
Mean Temperature 66 °F -  
Max Temperature 80 °F 70 °F 89 °F (1986)
Min Temperature 51 °F 49 °F 33 °F (1993)
Growing Degree Days 16 (Base 50)    
Moisture  
Dew Point 53 °F    
Average Humidity 78    
Maximum Humidity 94    
Minimum Humidity 42    
Precipitation  
Precipitation 0.00 in - - ()
Sea Level Pressure  
Sea Level Pressure 30.02 in    
Wind  
Wind Speed 2 mph (WNW)    
Max Wind Speed 12 mph    
Max Gust Speed -    
Visibility 6 miles    
Events      
Averages and records for this station are not official NWS values.
T = Trace of Precipitation, MM = Missing Value Source: NWS Daily Summary

Daily Weather History Graph

Daily Weather History Graph

Search for Another Location

Airport or City:

Trip Planner

Search our weather history database for the weather conditions in past years. The results will help you decide how hot, cold, wet, or windy it might be!

Date:

Astronomy

Oct. 01, 2013 Rise Set
Actual Time 7:01 AM EDT 6:47 PM EDT
Civil Twilight 6:34 AM EDT 7:14 PM EDT
Nautical Twilight 6:03 AM EDT 7:45 PM EDT
Astronomical Twilight 5:31 AM EDT 8:17 PM EDT
Moon 3:33 AM EDT (10/1) 4:49 PM EDT (10/1)
Length of Visible Light 12h 39m
Length of Day
11h 45m
Waning Crescent, 12% of the Moon is Illuminated
Oct 1
Waning Crescent
Oct 4
New
Oct 11
First Quarter
Oct 18
Full
Oct 26
Last Quarter

Hourly Weather History & Observations

Time (EDT) Temp. Heat Index Dew Point Humidity Pressure Visibility Wind Dir Wind Speed Gust Speed Precip Events Conditions
12:53 AM 53.1 °F - 51.1 °F 93% 30.03 in 5.0 mi Calm Calm - N/A   Clear
1:53 AM 52.0 °F - 50.0 °F 93% 30.03 in 4.0 mi Calm Calm - N/A   Clear
2:53 AM 52.0 °F - 50.0 °F 93% 30.03 in 4.0 mi Calm Calm - N/A   Clear
3:37 AM 51.8 °F - 50.0 °F 94% 30.02 in 2.5 mi Calm Calm - N/A   Clear
3:46 AM 51.8 °F - 50.0 °F 94% 30.02 in 3.0 mi Calm Calm - N/A   Clear
3:53 AM 51.1 °F - 48.9 °F 92% 30.01 in 3.0 mi Calm Calm - N/A   Clear
4:00 AM 51.8 °F - 50.0 °F 94% 30.02 in 2.5 mi Calm Calm - N/A   Clear
4:12 AM 51.8 °F - 48.2 °F 88% 30.01 in 3.0 mi Calm Calm - N/A   Clear
4:41 AM 51.8 °F - 48.2 °F 88% 30.02 in 2.5 mi Calm Calm - N/A   Clear
4:48 AM 51.8 °F - 50.0 °F 94% 30.02 in 3.0 mi Calm Calm - N/A   Clear
4:53 AM 52.0 °F - 50.0 °F 93% 30.02 in 4.0 mi West 3.5 mph - N/A   Clear
5:53 AM 53.1 °F - 50.0 °F 89% 30.04 in 5.0 mi Calm Calm - N/A   Overcast
6:53 AM 52.0 °F - 50.0 °F 93% 30.05 in 3.0 mi Calm Calm - N/A   Overcast
7:09 AM 51.8 °F - 48.2 °F 88% 30.05 in 2.0 mi Calm Calm - N/A   Scattered Clouds
7:46 AM 51.8 °F - 48.2 °F 88% 30.05 in 3.0 mi Calm Calm - N/A   Scattered Clouds
7:53 AM 53.1 °F - 50.0 °F 89% 30.06 in 3.0 mi Calm Calm - N/A   Scattered Clouds
8:06 AM 53.6 °F - 51.8 °F 94% 30.06 in 2.5 mi Calm Calm - N/A   Mostly Cloudy
8:13 AM 55.4 °F - 53.6 °F 94% 30.06 in 3.0 mi Calm Calm - N/A   Mostly Cloudy
8:53 AM 57.9 °F - 54.0 °F 87% 30.06 in 5.0 mi Calm Calm - N/A   Overcast
9:53 AM 63.0 °F - 55.0 °F 75% 30.06 in 7.0 mi West 3.5 mph - N/A   Clear
10:53 AM 71.1 °F - 57.0 °F 61% 30.06 in 8.0 mi NW 10.4 mph - N/A   Clear
11:53 AM 73.0 °F - 57.9 °F 59% 30.04 in 9.0 mi NNW 8.1 mph - N/A   Mostly Cloudy
12:53 PM 75.0 °F - 57.9 °F 55% 30.02 in 10.0 mi WNW 8.1 mph - N/A   Scattered Clouds
1:53 PM 75.0 °F - 55.9 °F 51% 30.00 in 10.0 mi WNW 11.5 mph - N/A   Partly Cloudy
2:53 PM 78.1 °F - 55.0 °F 45% 29.98 in 10.0 mi NW 11.5 mph - N/A   Partly Cloudy
3:53 PM 80.1 °F 80.1 °F 55.0 °F 42% 29.96 in 10.0 mi NW 4.6 mph - N/A   Scattered Clouds
4:53 PM 78.1 °F - 53.1 °F 42% 29.95 in 10.0 mi West 11.5 mph - N/A   Partly Cloudy
5:53 PM 75.0 °F - 55.0 °F 50% 29.96 in 10.0 mi WNW 6.9 mph - N/A   Clear
6:53 PM 73.0 °F - 55.0 °F 53% 29.96 in 10.0 mi WSW 3.5 mph - N/A   Clear
7:53 PM 66.9 °F - 55.9 °F 68% 29.97 in 10.0 mi Calm Calm - N/A   Clear
8:53 PM 64.0 °F - 55.9 °F 75% 29.98 in 9.0 mi Calm Calm - N/A   Clear
9:53 PM 66.0 °F - 55.9 °F 70% 29.99 in 8.0 mi West 3.5 mph - N/A   Clear
10:53 PM 62.1 °F - 55.9 °F 80% 29.99 in 7.0 mi West 3.5 mph - N/A   Clear
11:53 PM 57.0 °F - 54.0 °F 89% 30.00 in 5.0 mi Calm Calm - N/A   Clear